Showing default

COSMOS 2140 (GLONASS), 21217

Orbit data source: Space-Track

COSMOS 2140 (GLONASS), 21217 is a payload satellite owned by UNKS RF (CIS) in MEO that was launched on Thu, 04 Apr 1991 UTC via a PROTON-K/DM-2 launch vehicle from the Tyuratam Missile And Space Complex (TTMTR). Payload-class satellites include a variety of spacecraft equipped with specific instruments for various scientific and technological missions. These include communications satellites like Starlink; space stations such as the ISS; scientific satellites like the Hubble; Earth observation satellites from companies like Planet Labs, Umbra, and HawkEye 360; GPS; miniature CubeSats for education and research; and military/defense satellites.

Loading next visibility...
Identifier
21217, 1991-025B
Orbit
MEO
Country
Flag of CISCIS
Related business
Manufacturer
Polyot
Mission
Non-operational Defense Navigation
Bus & Motor
URAGAN, Unknown motor
Mass
1,300 kg wet, ~1,200 kg dry
Launch date (UTC)
1991-04-04 (35 years ago)
Launch vehicle
PROTON-K/DM-2
Launch site
Tyuratam Missile And Space Complex (TTMTR)
Object type
Payload
Rocket body
Debris
Shape & HBR
Cyl + 2 Pan, 4.2 m
Radar Cross Section
14.707 m², Large (>1 m²)

Expand to show TLE details & history
Last TLE update: 2 days ago

TLE from 2 days ago
0 COSMOS 2140 (GLONASS)
1 21217U 91025B   26171.41945244 -.00000062  00000-0  00000+0 0  9998
2 21217  64.3495 304.1808 0027558 215.4205 126.0142  2.13101118274003
Epoch: 2026-06-20T10:04Z
TLE epoch observation values (Epoch: 2026-06-20T10:04:00.690Z)
Latitude
-16.47524°
Longitude
-123.61843°
Altitude
19,175.74 km
Speed
3.946 km/s
True Right ascension
19h 44m 04s
True Declination
-16° 26' 57"
Sunlit
Object was in daylight at epoch
Visualization orbit readout
Latitude
Unknown
Longitude
Unknown
Altitude
Unknown
Speed
Unknown
Apparent Right ascension
Unknown
Apparent Declination
Unknown
Sunlit
N/A
Visualization observer readout
Local Sidereal Time
02:00:07
Azimuth
Unknown
Elevation
Unknown
Doppler factor
Unknown
Orbital elements
Apogee altitude
19,199.89 km
Perigee altitude
19,059.301 km
Semi-major axis
25,507.732 km
Eccentricity
0.00276
Inclination
64.3495°
RAAN
304.1808°
Arg. of periapsis
215.4205°
True anomaly
126.26912°
Mean anomaly
126.0142°
Eccentric anomaly
126.14171°
Mean motion
0.53276 °/min
Orbital period
675.72 mins
BSTAR
0
Loading maneuver chart data...
Computing Atmospheric mass density...
Loading historical data...
Loading historical data...
Loading historical data...
Loading historical data...
Loading historical data...
Loading historical data...
Loading historical data...

Documentation

Showing up to 5 results
|